Terug naar catalogus

STARLINK-34410

ActiefCommunicatieVLEO
NORAD 64440·PAYLOAD·🇺🇸 United States

Gelanceerd Jun 18, 2025 vanaf Cape Canaveral Space Force Station

Loading…

Volgende Passages (komende 24 uur)

TLE

VersSource: CelesTrak SupGP

Epoch: Sep 14, 2026, 22:34 UTC

1 64440C 25130C   26257.94076389  .00053245  00000+0  15736-2 0  2576
2 64440  53.1581 287.6938 0001195  91.3733 267.2353 15.34355744    18

Volg STARLINK-34410 in realtime met AllMySat

Download on the App Store